Theta_e
308 308 309 309 308 306 301 293 288 298 298 289 286 283 289 293 290 293 291 289 287 286 284 285 284 284 286 291 289 284 286 280 280 286 291 294 291 287 286 282 283 285 284 285
308 308 308 309 308 306 296 290 288 297 296 282 282 286 289 291 290 289 288 287 288 287 284 281 285 286 291 290 288 284 284 276 273 276 285 289 286 287 284 284 287 283 282 287
308 308 308 308 307 305 294 289 284 287 290 286 285 283 285 286 292 290 289 287 288 284 283 284 282 285 290 291 289 294 287 278 279 275 278 281 279 282 284 282 279 281 284 286
309 309 308 308 307 305 295 287 285 285 280 284 287 286 286 285 285 289 289 286 287 283 280 282 281 285 286 288 291 286 282 276 278 280 282 283 282 282 283 281 281 279 282 286
309 309 308 308 307 304 293 287 285 285 282 285 285 286 284 285 287 287 285 284 287 285 281 283 280 283 281 282 284 282 280 277 279 279 284 284 281 283 283 284 283 284 285 286
309 309 309 309 308 301 292 291 289 288 286 284 283 283 285 287 287 289 290 288 285 283 285 287 287 286 285 285 281 280 279 279 279 276 281 281 277 281 283 285 288 287 282 289
308 309 309 309 308 302 293 290 288 286 282 285 285 288 289 288 288 285 289 289 284 289 292 288 285 283 284 284 283 283 280 279 281 275 278 270 280 291 290 287 288 291 292 293
309 309 309 309 309 306 295 292 290 287 282 286 289 289 288 287 287 286 287 289 290 290 285 280 278 278 279 282 284 283 284 281 280 275 273 279 283 289 287 285 284 292 291 293
308 309 309 309 308 307 296 295 290 290 285 286 291 288 288 283 282 285 287 290 290 287 281 280 275 274 278 278 281 285 285 284 282 279 275 273 284 290 293 292 282 291 292 292
308 308 309 309 309 308 297 294 292 291 287 290 289 287 286 288 285 282 284 286 287 286 279 278 276 276 280 276 276 278 279 282 277 279 277 280 289 290 293 282 281 292 293 293
307 308 308 308 308 308 298 294 295 292 287 289 293 294 289 288 286 282 285 283 285 283 277 278 277 277 278 277 280 280 278 279 274 277 274 270 290 289 283 288 292 293 294 294
306 307 308 308 307 308 302 294 296 295 291 291 293 294 295 295 292 288 285 287 287 289 282 278 280 277 278 277 273 284 280 284 281 282 278 289 291 288 290 293 291 291 294 296
306 307 308 308 307 307 301 294 292 292 290 291 292 291 296 297 295 294 286 286 294 292 291 288 284 280 282 276 280 283 287 290 286 286 286 289 290 289 292 293 289 293 295 293
306 307 307 307 307 307 301 295 293 291 288 285 288 295 294 298 295 294 292 291 290 289 292 285 284 282 288 285 286 285 287 288 285 286 289 288 290 289 295 294 295 292 293 292
306 306 307 307 306 304 297 295 294 293 288 284 287 290 294 295 293 292 291 288 287 287 286 286 283 289 288 288 288 282 290 286 283 283 287 284 287 292 296 295 294 294 294 293
306 307 307 306 306 302 294 289 294 296 292 287 285 289 291 293 294 292 290 288 287 290 288 286 288 291 289 282 278 289 292 293 291 288 290 290 294 295 295 295 296 296 295 295
306 307 306 306 304 294 291 290 294 300 293 288 284 285 291 293 291 291 291 288 287 286 285 289 289 289 291 285 280 289 292 293 293 294 294 290 291 290 293 293 295 296 295 295
307 307 306 306 304 301 296 297 302 298 292 289 283 283 286 292 287 286 289 288 288 287 287 291 290 290 288 284 291 294 293 293 291 292 293 292 293 292 291 293 293 292 291 292
306 306 305 300 297 292 295 306 301 297 292 285 282 277 278 290 286 286 288 288 284 289 288 289 290 285 285 290 292 294 295 290 291 293 292 291 290 291 292 293 292 292 291 291
305 299 294 289 293 305 303 297 294 293 291 289 284 284 280 286 286 285 284 286 288 284 288 288 286 285 293 295 296 299 297 292 294 289 288 290 290 291 291 291 292 291 292 292
293 290 290 293 301 296 293 289 288 287 285 286 285 283 283 289 284 285 286 285 287 281 287 285 285 285 291 295 296 300 300 297 293 292 292 293 293 293 294 293 293 293 293 293
294 295 295 294 292 289 286 283 285 283 282 287 284 285 286 287 290 287 289 284 287 284 289 282 280 288 294 296 299 301 301 300 295 296 295 296 296 296 296 295 295 293 294 294
297 294 292 289 289 281 283 280 280 281 285 289 289 286 285 287 289 287 287 284 281 290 285 282 284 291 295 296 298 299 303 303 301 298 297 296 296 299 298 296 297 295 294 294
294 290 281 283 282 284 281 284 285 290 286 289 291 290 289 287 288 287 285 288 286 279 278 280 284 291 293 294 297 300 302 302 302 301 298 296 297 298 299 297 297 295 294 294
291 290 280 284 291 293 293 292 291 293 293 292 291 292 291 287 285 285 284 283 282 283 282 287 289 292 291 291 293 298 301 301 301 303 303 299 299 298 297 298 297 295 295 294
293 291 286 288 291 291 293 293 293 296 295 295 294 290 288 283 283 283 283 279 281 283 286 288 290 290 289 290 292 296 302 300 302 303 303 303 301 301 298 296 296 295 295 295
292 288 289 292 293 292 291 293 294 297 295 292 290 283 282 284 282 284 286 283 285 287 288 290 289 288 288 289 292 295 298 298 299 301 302 303 303 303 301 298 296 296 295 296
Wind_Speed
30 31 32 33 31 26 8 4 5 6 9 9 4 4 3 3 9 7 6 5 5 4 7 5 5 3 1 6 5 4 3 2 5 7 18 6 4 4 5 5 10 4 4 8
30 32 33 33 31 20 3 5 2 6 4 7 3 4 9 7 7 8 4 6 6 5 5 4 4 3 3 7 5 2 3 2 6 7 4 6 6 3 7 4 2 6 3 7
31 33 34 35 31 19 5 6 5 7 9 4 8 6 6 5 8 9 6 5 6 5 7 5 2 6 2 9 3 6 4 0 5 6 6 8 14 18 7 2 5 6 17 22
30 33 35 36 35 20 6 5 3 2 4 7 12 9 4 9 5 4 11 6 6 3 4 5 2 3 4 5 6 3 3 3 3 8 15 16 17 18 20 16 15 11 22 19
29 31 34 35 37 18 9 7 6 5 3 3 8 7 5 5 4 6 3 3 6 1 5 5 5 1 2 5 5 4 3 3 4 11 13 13 17 18 18 16 19 21 24 29
28 29 31 33 35 15 6 4 3 7 6 4 5 4 3 5 5 3 4 4 2 2 4 4 8 7 6 5 2 1 2 1 5 6 10 11 6 5 6 9 14 13 17 16
26 27 28 29 29 16 4 1 3 6 4 5 4 3 4 6 3 3 2 4 2 4 7 5 1 2 3 5 2 4 3 1 2 5 6 3 2 11 12 17 18 14 18 18
24 25 25 25 25 20 5 2 4 5 4 3 7 7 4 3 6 4 1 3 2 7 3 4 5 5 5 5 2 5 3 1 4 3 3 9 2 6 13 16 26 14 14 18
22 23 23 23 23 22 5 4 1 6 7 4 2 3 4 2 4 6 3 4 4 6 4 5 4 4 3 5 10 6 4 2 4 4 4 5 2 6 21 17 14 6 16 18
22 23 22 21 21 19 5 3 4 5 6 3 2 3 1 2 3 1 3 7 8 5 4 4 4 2 1 3 4 6 6 3 3 6 5 7 4 19 19 7 5 18 17 19
20 21 21 22 21 20 5 0 5 5 4 2 3 3 4 3 3 2 4 4 6 5 6 3 2 2 2 3 4 5 3 4 3 4 4 7 20 20 12 13 22 22 18 13
19 20 20 18 18 19 6 4 3 2 6 3 1 3 3 4 3 5 4 4 0 2 3 3 1 2 3 1 4 4 3 3 4 3 6 13 18 17 20 14 8 13 10 6
17 17 16 15 15 15 7 2 3 4 4 4 6 5 6 7 6 1 5 2 1 3 2 2 1 2 0 2 2 3 3 4 4 6 3 14 14 17 16 16 16 18 23 23
16 15 14 12 12 12 8 4 3 4 3 5 3 3 6 4 7 9 3 6 5 4 3 3 2 1 0 2 3 3 3 8 11 7 6 14 8 18 15 14 15 19 23 21
17 15 12 10 9 7 5 3 3 2 4 5 1 1 4 4 6 9 7 7 6 3 3 3 1 1 1 1 2 2 4 5 5 4 9 5 9 15 15 15 17 16 16 16
17 14 11 8 6 2 3 5 3 4 2 5 3 3 0 2 5 7 5 4 3 2 3 1 1 2 1 2 3 5 5 3 5 4 8 8 12 10 15 12 10 9 11 12
17 12 6 4 5 3 4 4 3 4 2 4 3 4 4 4 3 2 3 2 2 3 2 2 1 1 0 1 1 11 9 2 5 6 8 7 8 7 10 9 10 13 11 11
16 6 3 2 4 6 4 4 4 2 5 4 4 4 4 6 4 3 2 2 2 3 2 2 1 2 2 1 8 12 6 1 4 7 6 4 6 9 9 7 7 10 8 9
8 5 4 3 6 4 2 5 4 2 4 4 4 2 4 4 2 2 4 2 3 1 3 1 1 3 4 7 11 11 8 3 3 6 6 7 7 7 7 7 8 8 7 7
2 3 4 4 3 9 6 4 4 5 5 5 3 2 3 3 2 3 2 3 2 3 1 1 3 1 4 11 13 8 6 1 3 2 6 7 5 6 6 5 4 5 5 5
5 4 1 3 7 3 4 4 5 4 5 4 2 1 2 2 3 3 1 1 1 4 4 3 3 6 12 17 13 10 5 6 2 1 3 4 3 4 3 4 4 5 5 4
2 1 0 2 4 4 6 3 4 6 2 4 2 3 1 4 2 2 2 1 2 3 3 4 4 4 10 14 13 7 7 6 4 1 3 4 4 2 2 4 6 6 5 5
2 2 4 5 4 10 5 5 4 4 4 3 3 4 1 4 2 1 2 5 1 1 4 2 4 8 11 11 10 11 3 4 5 3 2 3 4 0 2 4 5 5 5 4
4 4 6 4 4 2 2 3 2 3 3 3 2 2 1 1 3 1 4 2 4 4 4 3 4 11 13 12 10 10 8 6 7 10 4 5 5 5 3 5 4 4 3 1
4 4 3 2 2 1 2 2 1 3 1 1 2 1 0 2 3 3 3 5 4 3 1 4 5 12 9 8 8 6 5 5 7 9 6 3 4 4 3 2 3 4 4 2
4 5 3 1 1 2 1 1 3 1 1 0 0 2 2 4 2 4 3 3 1 3 4 4 6 8 9 7 7 6 2 2 2 1 5 6 5 0 1 0 1 3 4 3
4 2 1 1 1 2 3 1 2 1 1 1 2 3 1 1 3 2 0 3 3 4 5 4 4 6 7 7 6 6 6 5 5 4 5 4 3 0 2 4 4 5 5 4
Wind_Direction
354 352 352 353 352 342 38 74 52 327 349 57 44 51 62 67 4 25 61 74 68 51 20 42 82 83 37 22 353 348 345 308 296 292 281 53 51 76 37 56 320 304 242 262
356 355 354 356 356 1 89 82 6 330 28 93 49 48 82 79 25 21 56 40 47 36 37 75 87 12 256 29 340 353 350 346 313 325 41 33 20 45 19 280 295 247 298 255
1 357 357 357 359 358 82 81 47 352 28 43 100 103 29 100 31 48 55 50 54 48 29 18 74 358 330 327 302 22 52 182 191 244 265 291 299 296 293 214 250 277 254 292
4 2 359 359 359 358 81 39 81 177 15 16 66 76 52 60 47 61 23 30 29 51 45 4 348 265 324 316 323 44 100 238 273 274 263 256 262 264 287 270 249 246 277 281
7 7 3 1 2 0 75 106 110 16 60 42 58 30 15 56 34 35 51 54 307 78 149 188 258 267 227 248 336 19 13 271 273 282 279 268 264 254 258 269 279 265 271 268
10 10 9 6 7 17 68 354 45 98 357 27 72 17 38 8 121 97 99 274 292 282 241 245 241 208 230 235 272 241 121 17 327 280 330 309 289 294 274 282 289 273 268 286
10 11 12 12 12 29 93 49 90 75 43 71 64 80 87 56 20 151 58 19 24 252 329 288 80 153 225 201 211 199 147 245 223 277 320 335 154 32 348 326 293 325 315 312
11 12 12 13 14 19 66 25 76 97 86 79 48 48 28 16 350 41 87 338 234 295 7 46 31 359 23 352 49 224 194 102 305 297 240 288 321 15 352 323 300 306 328 328
10 11 13 13 14 11 64 44 16 87 117 342 332 60 5 24 342 9 349 337 317 29 64 52 51 43 332 336 333 342 315 263 175 296 284 273 247 323 335 313 277 27 338 322
11 10 10 11 11 14 51 27 14 81 97 339 64 64 62 45 31 85 326 341 358 26 29 63 54 10 282 354 314 334 316 331 247 275 266 277 10 337 325 283 292 331 321 309
10 8 10 12 7 9 44 289 1 99 95 310 20 42 68 26 59 56 297 41 9 21 55 67 21 39 348 341 275 282 285 315 306 324 305 316 351 335 327 291 301 294 288 295
7 8 8 8 9 5 33 36 350 358 83 155 10 67 48 61 85 133 18 139 103 73 71 52 90 11 359 36 295 342 331 326 305 278 262 302 338 329 353 354 352 306 251 302
2 4 5 6 10 12 45 83 333 42 71 20 45 3 348 36 33 138 112 325 88 71 66 86 92 52 161 336 307 283 274 6 275 301 280 341 330 327 344 16 20 16 55 65
354 356 0 2 7 11 39 60 325 74 99 99 305 345 37 14 30 48 59 123 53 79 39 74 57 19 204 326 324 317 300 315 309 265 334 311 343 342 8 28 40 45 49 49
346 347 352 356 2 41 68 73 17 108 122 155 177 22 4 41 52 63 48 80 87 76 79 61 42 297 303 307 265 293 317 342 339 326 343 306 300 330 23 34 46 38 53 66
339 339 341 348 357 75 63 28 346 13 92 88 66 284 123 54 70 73 72 76 80 83 108 151 262 224 339 42 301 260 266 16 344 308 282 283 326 343 360 17 26 26 33 47
337 333 329 346 15 68 82 162 240 355 53 71 44 0 347 347 50 13 37 63 96 114 123 78 11 299 21 251 343 310 320 17 8 344 339 351 337 333 344 18 29 47 48 51
337 358 89 74 72 95 37 335 357 52 83 66 77 304 26 6 1 359 355 22 41 19 130 117 309 329 1 96 347 340 334 136 27 329 332 282 316 14 11 15 33 44 39 46
349 66 100 50 33 43 286 326 66 57 107 96 70 76 283 3 337 276 343 33 44 316 54 28 6 335 27 334 346 352 338 323 295 323 337 2 17 5 8 24 20 47 46 47
358 38 45 21 309 299 340 6 22 22 357 31 71 98 306 40 332 338 9 359 40 47 320 39 51 174 314 353 336 322 329 302 161 342 342 341 356 11 12 17 28 51 63 71
37 38 82 256 317 41 34 40 52 343 32 9 318 153 312 319 23 321 77 239 0 55 336 64 358 360 347 335 318 323 336 318 102 254 278 289 339 339 23 23 38 64 62 70
181 159 247 320 32 36 64 21 2 41 8 317 344 290 236 298 355 14 346 14 35 47 319 57 11 272 327 338 353 338 340 352 337 264 301 330 350 349 17 38 31 32 72 65
84 67 50 45 332 40 53 13 344 352 320 305 344 326 307 335 24 301 351 47 72 350 47 33 253 304 333 331 312 307 287 329 353 321 280 317 335 28 89 72 59 71 61 50
66 58 22 85 3 53 141 169 213 236 199 285 286 281 359 309 356 355 65 333 60 49 45 298 275 316 326 327 329 343 46 40 9 5 32 28 59 45 81 106 113 108 97 71
67 62 52 70 221 179 204 191 264 249 227 303 331 283 324 353 49 30 53 39 59 39 293 272 280 313 316 318 332 342 23 46 2 354 351 31 69 69 64 113 119 120 133 152
66 54 69 259 76 347 325 256 266 235 226 225 235 358 58 32 37 48 24 77 70 251 235 260 301 312 323 330 325 323 1 47 157 71 9 26 28 84 165 235 244 196 181 206
57 22 27 184 186 228 253 214 272 324 332 46 77 50 78 11 48 77 260 164 218 241 281 279 269 294 304 317 335 352 352 13 16 8 2 62 350 106 288 279 265 240 235 218